CW5346 Weather Reports


Display with metric or nautical units.
time (UTC)temp
F
wind
direction
speed
MPH
gust
MPH
rain 1hr
in
rain 24hr
in
rain mn
in
humidity
%
barometer
mb
20260510070625 51 229 0.0 0.0 0.00 0.30 0.00 97 1011.3
20260510065604 51 229 0.0 0.0 0.00 0.30 0.00 96 1011.3
20260510064604 51 229 0.0 0.0 0.00 0.30 0.00 97 1011.2
20260510063603 51 229 0.0 0.0 0.00 0.30 0.00 97 1011.3
20260510062625 51 229 0.0 0.0 0.00 0.30 0.00 97 1011.5
20260510061604 51 229 0.0 0.0 0.00 0.30 0.00 97 1011.5
20260510060625 51 229 0.0 0.0 0.00 0.30 0.00 97 1011.4
20260510055604 51 229 0.0 0.0 0.00 0.30 0.00 97 1011.2
20260510054604 51 229 0.0 0.0 0.00 0.30 0.00 97 1011.1
20260510053604 51 229 0.0 0.0 0.00 0.30 0.00 97 1011.2
20260510052604 51 229 0.0 0.0 0.00 0.30 0.00 97 1011.1
20260510051604 51 229 0.0 0.0 0.00 0.30 0.00 97 1011.1
20260510050604 51 229 0.0 0.0 0.00 0.30 0.00 97 1011.2
20260510045625 51 229 0.0 0.0 0.00 0.30 0.00 97 1011.3
20260510044603 51 229 0.0 0.0 0.00 0.30 0.00 97 1011.3
20260510043604 51 229 0.0 0.0 0.00 0.30 0.00 96 1011.4
20260510042603 51 229 0.0 0.0 0.00 0.30 0.00 97 1011.2
20260510041604 51 229 0.0 0.0 0.00 0.30 0.00 96 1011.4
20260510040603 51 229 0.0 0.0 0.00 0.30 0.00 96 1011.4
20260510035604 51 229 0.0 0.0 0.00 0.30 0.30 96 1011.3
20260510034604 51 229 0.0 0.0 0.00 0.30 0.30 96 1011.2
20260510033604 51 229 0.0 0.0 0.00 0.30 0.30 96 1011.2
20260510032624 51 229 0.0 0.0 0.00 0.30 0.30 96 1011.1
20260510031604 51 229 0.0 0.0 0.00 0.30 0.30 96 1010.9
20260510030603 51 229 0.0 0.0 0.00 0.30 0.30 96 1010.8
20260510025604 51 229 0.0 0.0 0.00 0.30 0.30 96 1011.0
20260510024646 51 229 0.0 0.0 0.00 0.30 0.30 96 1011.1
20260510023604 51 229 0.0 0.0 0.00 0.30 0.30 96 1011.2
20260510022624 51 229 0.0 0.0 0.00 0.30 0.30 96 1011.0
20260510021604 51 229 0.0 0.0 0.00 0.30 0.30 96 1011.1
20260510020603 51 229 0.0 0.0 0.00 0.30 0.30 96 1011.0
20260510015604 51 229 0.0 0.0 0.00 0.30 0.30 96 1011.0
20260510014603 51 229 0.0 0.0 0.00 0.30 0.30 96 1011.0
20260510013604 51 229 0.0 0.0 0.00 0.30 0.30 96 1011.2
20260510012603 52 229 0.0 0.0 0.00 0.30 0.30 96 1010.9
20260510011604 52 229 0.0 0.0 0.00 0.30 0.30 96 1010.9
20260510010625 52 229 0.0 0.0 0.00 0.30 0.30 95 1010.7
20260510005604 52 229 0.0 0.0 0.00 0.30 0.30 95 1010.5
20260510004624 52 229 0.0 0.0 0.00 0.30 0.30 95 1010.5
20260510003604 53 229 0.0 0.0 0.00 0.30 0.30 95 1010.5
20260510002603 53 229 0.0 0.0 0.00 0.30 0.30 95 1010.4
20260510001604 54 229 0.0 0.0 0.00 0.30 0.30 95 1010.5
20260510000604 54 229 0.0 0.0 0.00 0.30 0.30 95 1010.3
20260509235604 54 229 0.0 0.0 0.00 0.30 0.30 95 1010.3
20260509234604 54 229 0.0 0.0 0.00 0.30 0.30 95 1010.3
20260509233603 54 229 0.0 0.0 0.00 0.30 0.30 95 1010.2
20260509232604 55 229 0.0 0.0 0.00 0.30 0.30 95 1010.1
20260509231604 55 229 0.0 0.0 0.00 0.30 0.30 95 1010.1
20260509230604 55 229 0.0 0.0 0.00 0.30 0.30 95 1010.0
20260509225603 55 229 0.0 0.0 0.00 0.30 0.30 95 1010.2
20260509224604 55 229 0.0 0.0 0.00 0.30 0.30 96 1010.1
20260509223603 55 229 0.0 0.0 0.00 0.30 0.30 95 1010.3
20260509222603 55 229 0.0 0.0 0.00 0.30 0.30 95 1010.4
20260509221603 55 229 0.0 5.0 0.00 0.30 0.30 95 1010.2
20260509220604 55 229 0.0 0.0 0.00 0.30 0.30 95 1010.4
20260509215603 54 229 0.0 0.0 0.08 0.30 0.30 95 1010.3
20260509214603 54 229 0.0 0.0 0.08 0.30 0.30 95 1010.3
20260509213603 54 229 0.0 0.0 0.08 0.30 0.30 95 1010.6
20260509212604 54 229 0.0 0.0 0.06 0.28 0.28 94 1010.7
20260509211604 54 229 0.0 0.0 0.04 0.26 0.26 94 1010.7
20260509210603 54 229 0.0 0.0 0.01 0.23 0.23 94 1010.5
20260509205604 55 229 0.0 0.0 0.12 0.21 0.21 94 1010.5
20260509204604 55 229 0.0 1.0 0.10 0.19 0.19 94 1010.5
20260509203604 55 229 0.0 0.0 0.05 0.14 0.14 94 1010.6
20260509202604 55 229 0.0 0.0 0.03 0.12 0.12 94 1010.7
20260509201603 55 229 0.0 3.0 0.02 0.11 0.11 93 1010.8
20260509200604 55 229 0.0 0.0 0.00 0.09 0.09 93 1011.0
20260509195625 55 229 0.0 6.0 0.06 0.08 0.08 91 1010.8
20260509194603 56 218 1.0 7.0 0.03 0.05 0.05 91 1011.0
20260509193604 56 218 2.0 8.0 0.01 0.03 0.03 90 1011.0
20260509192603 57 248 3.0 9.0 0.00 0.02 0.02 90 1011.1
20260509191625 57 249 2.0 4.0 0.00 0.02 0.02 91 1010.9
20260509190625 57 250 0.0 0.0 0.00 0.02 0.02 91 1010.9
20260509185603 57 250 0.0 1.0 0.02 0.02 0.02 91 1010.9
20260509184604 57 249 0.0 5.0 0.02 0.02 0.02 88 1010.5
20260509183603 58 250 0.0 4.0 0.01 0.01 0.01 85 1011.3
20260509182625 59 242 2.0 5.0 0.01 0.01 0.01 83 1011.6
20260509181604 60 174 1.0 6.0 0.00 0.00 0.00 82 1011.9
20260509180603 61 257 2.0 13.0 0.00 0.00 0.00 78 1011.9
20260509175604 62 262 4.0 11.0 0.00 0.00 0.00 73 1011.3
20260509174603 63 267 4.0 9.0 0.00 0.00 0.00 70 1011.0
20260509173604 63 224 4.0 10.0 0.00 0.00 0.00 71 1010.9
20260509172603 62 236 2.0 12.0 0.00 0.00 0.00 70 1010.8
20260509171603 63 241 3.0 8.0 0.00 0.00 0.00 69 1010.8
20260509170603 62 207 1.0 11.0 0.00 0.00 0.00 71 1010.7
20260509165603 62 223 1.0 8.0 0.00 0.00 0.00 72 1010.7
20260509164603 62 224 1.0 8.0 0.00 0.00 0.00 75 1011.0
20260509163625 62 220 4.0 9.0 0.00 0.00 0.00 74 1011.2
20260509162604 62 219 0.0 7.0 0.00 0.00 0.00 77 1011.0
20260509161604 61 221 1.0 7.0 0.00 0.00 0.00 76 1011.3
20260509160624 61 236 0.0 6.0 0.00 0.00 0.00 77 1011.6
20260509155604 61 239 1.0 8.0 0.00 0.00 0.00 78 1011.6
20260509154604 60 254 0.0 8.0 0.00 0.00 0.00 79 1011.8
20260509153645 60 259 0.0 6.0 0.00 0.00 0.00 81 1011.6
20260509152603 59 260 0.0 7.0 0.00 0.00 0.00 81 1012.0
20260509151625 58 264 0.0 0.0 0.00 0.00 0.00 83 1012.1
20260509150603 58 264 0.0 0.0 0.00 0.00 0.00 84 1012.0
20260509145624 58 263 0.0 7.0 0.00 0.00 0.00 82 1012.1
20260509144604 58 269 0.0 4.0 0.00 0.00 0.00 83 1012.2
20260509143603 58 275 0.0 0.0 0.00 0.00 0.00 86 1012.0
20260509142604 57 275 0.0 0.0 0.00 0.00 0.00 87 1012.0
20260509141625 57 275 0.0 0.0 0.00 0.00 0.00 89 1012.0
20260509140603 56 275 0.0 0.0 0.00 0.00 0.00 91 1011.9
20260509135603 55 275 0.0 0.0 0.00 0.00 0.00 91 1012.1
20260509133625 53 275 0.0 0.0 0.00 0.00 0.00 92 1012.0
20260509132603 53 244 0.0 0.0 0.00 0.00 0.00 93 1012.2
20260509131603 52 244 0.0 0.0 0.00 0.00 0.00 93 1012.4
20260509130604 52 244 0.0 0.0 0.00 0.00 0.00 94 1012.6
20260509125603 52 246 0.0 0.0 0.00 0.00 0.00 94 1012.8
20260509123603 51 246 0.0 0.0 0.00 0.00 0.00 94 1012.7
20260509122624 51 246 0.0 0.0 0.00 0.00 0.00 95 1012.8
20260509121603 51 246 0.0 0.0 0.00 0.00 0.00 95 1012.9
20260509120603 50 246 0.0 0.0 0.00 0.00 0.00 95 1012.7
20260509115603 50 246 0.0 0.0 0.00 0.00 0.00 95 1012.6
20260509114604 50 246 0.0 0.0 0.00 0.00 0.00 95 1012.1
20260509113603 50 246 0.0 0.0 0.00 0.00 0.00 95 1012.4
20260509112603 50 246 0.0 0.0 0.00 0.00 0.00 95 1012.7
20260509111603 49 246 0.0 0.0 0.00 0.00 0.00 95 1013.0
20260509110603 49 246 0.0 0.0 0.00 0.00 0.00 95 1012.9
20260509105604 49 246 0.0 0.0 0.00 0.00 0.00 95 1012.8
20260509104646 49 246 0.0 0.0 0.00 0.00 0.00 95 1012.4
20260509103603 49 246 0.0 0.0 0.00 0.00 0.00 95 1012.6
20260509102603 49 246 0.0 0.0 0.00 0.00 0.00 95 1012.4
20260509101625 49 246 0.0 0.0 0.00 0.00 0.00 95 1012.2
20260509100603 49 246 0.0 0.0 0.00 0.00 0.00 95 1012.3
20260509095645 49 246 0.0 0.0 0.00 0.00 0.00 95 1012.3
20260509094604 49 246 0.0 0.0 0.00 0.00 0.00 95 1012.3
20260509093603 49 246 0.0 0.0 0.00 0.00 0.00 95 1012.3
20260509092604 49 246 0.0 0.0 0.00 0.00 0.00 95 1012.4
20260509091603 49 246 0.0 0.0 0.00 0.00 0.00 94 1012.4
20260509090604 49 246 0.0 0.0 0.00 0.00 0.00 95 1012.5
20260509085603 49 246 0.0 0.0 0.00 0.00 0.00 94 1012.4
20260509084624 49 246 0.0 0.0 0.00 0.00 0.00 94 1012.4
20260509083604 49 246 0.0 0.0 0.00 0.00 0.00 94 1012.5
20260509082604 49 246 0.0 0.0 0.00 0.00 0.00 94 1012.7
20260509081604 49 246 0.0 0.0 0.00 0.00 0.00 94 1012.7
20260509080604 49 246 0.0 0.0 0.00 0.00 0.00 94 1012.6
20260509075604 49 246 0.0 0.0 0.00 0.00 0.00 94 1012.7
20260509074603 49 246 0.0 0.0 0.00 0.00 0.00 94 1012.8
20260509073603 49 246 0.0 0.0 0.00 0.00 0.00 94 1012.8
20260509072625 49 246 0.0 0.0 0.00 0.00 0.00 94 1012.7